Location: *
(49.7115°N, 15.0136°E)
Time: 00:17:28
(UTC+00:00)

Cosmos 1346 Rocket - Pass Details

Date: 27 February 2020
Orbit: 527 x 552 km, 81.2° (Epoch: 09 April)

Event Time Altitude Azimuth Distance (km) Brightness Sun altitude
Rises 18:04:32 0° 208° (SSW) 2,692 6.7 -14.7°
Reaches altitude 10° 18:06:47 10° 215° (SW) 1,800 5.8 -15.1°
Maximum altitude 18:10:33 42° 287° (WNW) 784 4.1 -15.7°
Drops below altitude 10° 18:14:19 10° 359° (N) 1,801 5.5 -16.3°
Sets 18:16:34 0° 7° (N) 2,693 6.3 -16.7°
